Location: Unspecified
(0.0000°N, 0.0000°E)
Time: 21:27:25
(UTC+00:00)

CZ-3C DEB (VEB) - Pass Details

Date: 14 March 2026
Orbit: 224 x 25513 km, 21.0° (Epoch: 10 April)

Event Time Altitude Azimuth Distance (km) Brightness Sun altitude
Rises 21:42:44 0° 288° (WNW) 5,625 ? -53.3°
Reaches altitude 10° 21:45:11 10° 294° (WNW) 5,393 ? -53.9°
Enters shadow 22:32:40 52° 38° (NE) 13,913 ? -65.7°
Exits shadow 22:45:48 50° 46° (NE) 16,255 ? -69.0°
Maximum altitude 02:28:21 58° 81° (E) 23,723 ? -55.2°
Drops below altitude 10° 04:19:06 10° 109° (ESE) 10,708 ? -27.5°
Sets 04:24:31 0° 110° (ESE) 10,311 ? -26.2°
